Temperature
7 7 7 7 7 7 7 7 7 7 7 6 6 6 6 6 6 6 6 6 6 6 6 5 5 5 5 5 5 5 4 4 4 4 4 4 4 4 4 4 4 3 3
7 7 7 7 7 7 7 7 6 6 6 6 6 6 6 6 6 6 6 6 5 5 5 5 5 5 4 4 4 4 4 4 3 3 3 3 3 3 3 3 3 3 3
7 7 6 7 7 6 6 6 6 6 6 6 6 5 5 5 5 5 5 5 5 5 5 4 4 4 4 4 4 4 3 3 3 3 3 3 2 2 2 2 2 2 2
6 6 6 6 6 6 6 6 6 6 5 5 5 5 5 5 5 5 5 5 5 4 4 4 4 4 4 3 3 3 3 3 2 2 2 2 2 2 1 1 1 1 1
6 6 6 6 6 6 6 6 5 5 5 5 5 5 5 4 5 4 4 4 4 4 4 4 4 4 3 3 3 3 2 2 2 2 1 1 1 1 1 0 0 0 0
6 6 6 6 5 5 5 5 5 5 5 4 4 4 4 4 4 4 4 4 4 4 3 3 3 3 3 3 3 2 2 2 1 1 1 1 0 0 0 -0 -1 -1 -1
5 5 5 5 5 5 5 5 5 4 4 4 4 4 4 4 4 4 3 3 3 3 3 3 3 3 2 2 2 2 1 1 1 1 0 0 -0 -0 -0 -1 -1 -1 -1
5 5 5 5 5 5 5 5 4 4 4 4 4 4 4 3 3 3 3 3 3 2 2 2 2 2 2 2 1 1 1 1 1 0 0 -0 -0 -1 -1 -1 -1 -2 -2
5 5 5 5 4 4 4 4 4 4 3 3 3 3 3 3 3 3 3 2 2 2 2 2 2 2 1 1 1 0 0 0 -0 -0 -0 -1 -1 -1 -1 -2 -2 -2 -3
4 4 4 4 4 4 4 4 4 3 3 3 3 3 3 3 3 2 2 2 2 2 2 1 1 1 1 0 0 -0 -0 -0 -1 -1 -1 -1 -1 -1 -2 -2 -2 -3 -3
4 4 4 4 4 3 3 3 3 3 3 3 2 2 2 2 2 2 2 2 1 1 1 1 1 1 0 -0 -0 -1 -1 -1 -1 -1 -1 -2 -2 -2 -2 -2 -3 -3 -3
4 4 3 3 3 3 3 3 3 2 2 2 2 2 2 1 1 1 1 1 1 1 0 0 0 0 -0 -1 -1 -1 -1 -1 -2 -2 -2 -2 -2 -2 -3 -3 -3 -3 -4
3 3 3 3 3 3 2 2 2 2 2 2 1 1 1 1 1 1 1 1 0 0 -0 -0 -0 -1 -1 -1 -1 -2 -2 -2 -2 -2 -2 -3 -3 -3 -3 -3 -4 -4 -4
3 2 2 2 2 2 2 2 2 1 1 1 1 1 1 1 1 0 0 -0 -0 -1 -1 -1 -1 -1 -1 -2 -2 -2 -2 -2 -3 -3 -3 -3 -4 -4 -4 -4 -4 -5 -5
2 2 2 2 2 1 1 1 1 1 1 1 1 1 0 0 0 -0 -0 -1 -1 -1 -1 -2 -2 -2 -2 -2 -2 -3 -3 -3 -3 -3 -4 -4 -4 -4 -5 -5 -5 -5 -6
1 1 1 1 1 1 1 1 1 1 0 0 0 -0 -0 -0 -0 -1 -1 -1 -1 -2 -2 -2 -2 -3 -3 -3 -3 -3 -3 -3 -4 -4 -4 -4 -5 -5 -5 -5 -6 -6 -6
1 1 0 0 0 0 0 0 0 0 -0 -0 -0 -0 -1 -1 -1 -1 -1 -2 -2 -2 -3 -3 -3 -3 -3 -4 -4 -4 -4 -4 -4 -5 -5 -5 -5 -5 -6 -6 -6 -7 -7
0 0 -0 -0 -0 -0 -0 -1 -1 -1 -1 -1 -1 -1 -1 -1 -2 -2 -2 -2 -3 -3 -3 -3 -4 -4 -4 -4 -4 -4 -4 -5 -5 -5 -5 -5 -6 -6 -6 -7 -7 -7 -7
-0 -0 -0 -1 -1 -1 -1 -1 -1 -1 -2 -2 -2 -2 -2 -2 -2 -3 -3 -3 -3 -3 -4 -4 -4 -4 -4 -5 -5 -5 -5 -5 -5 -6 -6 -6 -6 -7 -7 -7 -7 -8 -8
-1 -1 -1 -1 -1 -1 -1 -2 -2 -2 -2 -2 -2 -3 -3 -3 -3 -3 -3 -4 -4 -4 -4 -4 -4 -5 -5 -5 -5 -5 -6 -6 -6 -6 -6 -6 -7 -7 -7 -8 -8 -8 -8
-1 -2 -2 -2 -2 -2 -2 -2 -2 -3 -3 -3 -3 -3 -3 -4 -4 -4 -4 -4 -4 -4 -4 -5 -5 -5 -5 -5 -6 -6 -6 -6 -6 -6 -7 -7 -7 -8 -8 -8 -8 -8 -8
-2 -2 -2 -2 -2 -2 -3 -3 -3 -3 -3 -3 -4 -4 -4 -4 -4 -4 -4 -4 -5 -5 -5 -5 -5 -6 -6 -6 -6 -6 -6 -6 -6 -7 -7 -7 -8 -8 -8 -8 -8 -9 -9
-2 -3 -3 -3 -3 -3 -3 -3 -3 -4 -4 -4 -4 -4 -5 -5 -5 -5 -5 -5 -5 -5 -5 -6 -6 -6 -6 -6 -6 -6 -6 -6 -7 -7 -7 -8 -8 -8 -8 -8 -9 -9 -9
-3 -3 -3 -3 -3 -4 -4 -4 -4 -4 -4 -5 -5 -5 -5 -5 -5 -5 -5 -5 -6 -6 -6 -6 -6 -6 -6 -6 -6 -7 -7 -7 -7 -7 -8 -8 -8 -8 -8 -9 -9 -9 -9
-4 -4 -4 -4 -4 -4 -4 -4 -5 -5 -5 -5 -5 -5 -5 -5 -5 -5 -6 -6 -6 -6 -6 -7 -7 -7 -7 -7 -7 -7 -7 -7 -7 -8 -8 -8 -8 -8 -9 -9 -9 -9 -9
-4 -4 -4 -4 -5 -5 -5 -5 -5 -5 -5 -5 -5 -6 -6 -6 -6 -6 -6 -6 -7 -7 -7 -7 -7 -7 -7 -7 -7 -7 -7 -7 -8 -8 -8 -8 -8 -9 -9 -9 -9 -9 -9
Wind_Speed
4 4 5 5 5 5 5 5 5 5 5 5 5 5 5 6 6 6 6 6 7 6 6 7 7 6 5 5 5 6 6 5 7 5 5 5 6 6 6 7 7 8 8
3 4 4 4 5 5 6 5 5 5 5 5 5 6 6 6 6 7 7 7 8 8 8 8 8 6 7 6 6 7 6 6 6 7 6 5 7 6 6 7 7 8 9
3 4 4 5 5 6 6 5 5 5 5 5 6 6 6 6 6 7 7 8 8 8 8 8 8 8 8 6 7 7 6 6 6 6 6 5 5 5 6 6 7 7 8
3 4 5 5 6 6 6 5 5 5 6 6 6 6 6 6 6 6 7 7 7 7 8 8 8 8 8 8 7 7 6 6 6 6 6 6 5 5 5 5 6 5 6
4 5 5 5 5 5 5 5 5 5 6 6 6 6 6 6 6 7 6 6 7 6 7 8 8 8 8 7 6 7 7 6 6 6 6 6 6 5 5 5 6 6 7
4 5 4 4 4 5 5 5 5 5 5 5 6 5 6 5 6 7 6 6 6 6 6 6 6 7 8 9 10 10 9 8 8 7 7 8 8 7 6 6 6 6 6
5 5 4 4 4 5 5 5 5 5 5 6 6 6 6 6 6 8 7 6 6 6 6 5 5 5 6 6 7 8 10 11 11 9 9 9 8 7 7 7 7 7 7
5 5 4 4 5 5 5 5 6 5 5 6 6 6 6 5 6 7 7 6 6 6 6 6 6 6 6 5 6 7 8 8 9 9 9 9 8 7 7 8 8 7 7
5 5 5 5 5 5 5 6 5 5 6 6 5 5 6 5 6 7 7 5 5 6 6 6 6 6 7 7 6 7 7 7 7 9 11 10 10 10 8 6 5 6 7
5 6 5 5 5 6 6 6 5 5 6 5 5 5 5 5 6 7 7 4 5 4 4 5 7 7 7 8 7 7 7 7 5 5 6 7 8 8 9 8 6 6 6
5 5 5 6 6 6 5 5 4 4 4 5 5 5 5 6 6 7 7 5 5 4 4 4 5 8 8 9 8 7 7 6 5 5 5 5 5 5 5 6 6 6 7
5 5 5 5 5 4 5 4 4 4 5 5 4 4 4 4 5 6 7 7 5 5 5 4 4 6 7 8 7 7 6 6 4 4 4 4 4 4 4 5 6 7 8
5 5 5 5 4 4 4 4 4 4 4 4 4 4 4 3 4 6 7 7 7 5 4 4 5 5 6 5 6 6 5 4 4 4 5 5 4 4 4 4 5 6 7
5 5 4 4 4 4 4 4 4 4 5 5 5 5 4 4 4 4 4 4 5 5 3 4 4 4 4 4 4 4 4 4 4 5 5 4 3 3 4 4 4 4 4
5 5 4 4 4 4 4 4 5 6 6 6 5 5 5 6 5 5 5 4 4 4 3 2 3 3 3 3 3 3 3 3 4 4 4 4 4 4 4 3 3 4 5
5 5 4 4 4 4 4 4 5 6 7 8 8 7 6 7 6 7 8 7 6 5 3 4 4 4 4 4 4 4 4 4 4 4 4 4 4 4 4 4 4 4 5
6 5 4 4 4 4 4 4 4 4 5 6 7 7 7 6 6 7 8 7 7 6 5 5 5 5 4 4 4 4 4 4 4 4 4 4 4 4 4 4 4 5 5
6 5 5 4 4 4 4 4 4 4 4 4 4 6 6 6 6 6 7 5 5 6 5 5 5 5 4 4 4 5 4 4 4 4 4 4 4 5 5 5 5 6 6
5 5 4 4 4 4 4 4 4 5 4 4 3 3 4 4 5 5 5 5 5 5 5 5 5 4 4 4 5 4 5 5 5 5 5 5 5 5 5 5 6 7 7
5 6 5 4 4 4 4 4 4 4 4 4 4 3 2 2 3 3 4 4 5 5 5 5 4 4 4 4 5 4 5 5 5 5 5 5 5 5 6 6 6 6 6
4 5 5 5 4 4 4 4 4 4 4 4 4 4 5 4 4 5 4 4 4 5 5 4 4 4 4 4 4 5 5 5 5 5 5 5 5 5 5 6 6 6 6
4 4 4 4 4 4 4 4 4 4 5 5 4 4 5 4 4 4 4 4 4 4 4 4 4 4 4 4 5 5 5 6 6 5 5 5 5 5 5 6 6 6 6
4 4 4 4 4 5 5 4 4 4 4 4 4 4 4 4 4 4 4 4 3 3 3 3 4 4 4 4 5 5 6 6 6 5 5 5 5 6 6 6 7 7 7
4 4 4 4 4 4 4 4 4 4 4 4 4 4 4 4 4 4 4 3 3 3 3 3 4 5 6 5 5 6 6 7 7 6 7 7 6 6 6 6 7 7 7
4 4 4 4 4 4 4 4 4 4 4 4 4 4 4 4 4 4 3 3 3 3 4 4 4 5 6 7 6 6 8 9 9 7 7 6 7 7 6 7 6 6 7
4 4 4 4 4 4 4 4 4 4 4 4 4 4 4 4 4 3 3 3 3 3 3 4 5 5 6 6 7 8 10 10 10 10 8 6 6 6 6 6 7 6 7
Wind_Direction
215 219 221 223 223 221 219 220 220 217 214 216 220 221 223 224 223 223 224 217 220 221 218 221 226 225 224 224 222 226 231 236 251 267 266 267 265 266 271 269 269 269 266
229 227 226 223 222 223 224 225 221 221 220 222 224 228 231 230 226 225 225 220 220 223 224 222 224 222 226 227 226 229 231 234 248 264 270 268 267 269 273 274 274 269 269
232 232 228 222 222 224 225 224 220 219 222 223 225 229 232 232 230 230 228 226 226 227 229 228 228 224 228 228 229 233 233 236 244 254 267 272 274 271 275 275 274 275 275
234 233 230 227 226 227 225 223 220 219 221 225 228 232 233 233 231 231 228 229 230 231 233 234 233 228 231 232 232 234 234 236 240 245 259 266 269 274 269 274 279 279 281
242 238 236 234 230 226 225 224 222 222 227 228 229 233 234 233 229 225 225 228 231 235 236 234 234 231 233 235 236 236 233 237 241 245 255 263 263 266 266 272 276 285 285
247 245 243 237 235 231 229 227 225 226 229 229 230 233 237 237 225 221 224 228 230 233 240 239 236 230 228 235 240 243 241 240 242 248 255 255 260 263 266 267 275 282 284
251 251 247 239 235 235 231 228 229 230 230 232 234 235 240 240 223 223 223 231 233 233 236 238 237 235 232 236 240 243 246 248 250 253 256 258 262 261 262 263 261 268 274
254 255 254 248 243 239 233 234 236 234 233 236 237 238 242 241 228 227 223 232 237 236 233 234 236 239 233 235 245 251 254 253 251 250 254 261 262 262 257 261 268 273 280
261 261 256 249 244 238 235 237 237 235 235 236 238 238 241 242 228 225 221 230 234 236 233 233 235 241 234 233 243 250 258 263 259 256 261 263 265 264 261 257 254 263 277
270 269 264 256 248 242 240 239 239 239 242 242 241 241 244 249 234 221 220 226 233 236 237 236 236 242 241 236 242 249 256 264 264 262 258 256 256 252 247 243 247 252 268
284 279 271 261 254 251 249 244 239 239 244 244 246 249 247 248 236 224 219 224 228 234 241 244 241 237 245 246 250 254 260 273 269 263 264 263 259 253 248 245 247 246 252
287 280 274 268 262 253 247 244 241 237 240 245 248 256 257 250 242 230 225 231 236 236 243 247 246 238 249 253 254 254 260 269 264 261 262 263 262 259 257 255 254 255 257
284 279 278 273 264 255 246 241 241 239 241 247 248 253 259 254 245 239 236 239 237 243 250 248 251 247 253 253 252 256 257 252 249 254 260 264 264 265 265 267 264 262 265
279 280 279 271 265 259 251 242 237 237 240 244 246 253 259 256 247 237 234 238 231 238 250 248 247 247 249 257 255 250 246 246 250 257 265 269 269 262 258 257 263 266 271
281 280 278 271 266 262 257 251 245 244 244 245 247 247 250 253 247 234 235 233 231 232 240 250 243 241 244 248 252 252 249 246 252 258 259 263 265 265 263 261 263 266 266
279 278 274 269 266 264 264 271 264 261 267 263 262 258 257 261 260 243 242 244 236 217 231 239 240 243 245 248 252 257 256 253 255 258 256 257 260 260 263 262 257 260 265
269 270 270 265 261 258 258 260 273 279 264 261 259 260 263 267 260 245 239 238 230 219 233 239 242 244 246 247 249 252 257 258 256 254 252 254 256 257 258 260 261 262 267
271 266 262 260 255 253 251 254 257 262 272 275 263 258 262 259 257 250 237 231 234 228 235 240 243 245 246 247 249 252 255 256 253 253 253 253 254 256 257 259 260 263 269
268 265 264 262 257 252 250 251 252 253 257 268 279 270 262 261 257 250 229 230 232 236 238 241 244 245 247 249 250 251 253 254 254 253 253 254 252 252 255 259 263 265 267
268 261 260 260 256 251 248 248 251 253 254 255 258 264 266 267 255 245 233 235 238 241 242 244 246 245 244 245 246 248 250 252 252 251 253 254 252 250 254 258 260 264 266
269 260 249 254 251 249 248 247 249 251 253 257 259 259 259 254 249 247 244 241 243 245 245 246 247 245 243 244 246 247 250 255 255 253 254 253 251 251 253 256 258 261 266
265 259 252 251 251 249 252 251 251 253 255 259 266 265 260 260 254 252 250 251 251 247 244 245 248 246 242 241 244 247 251 253 252 249 250 250 250 253 254 254 256 259 261
263 260 257 255 254 253 254 252 253 254 257 262 264 261 256 258 259 259 259 259 256 254 250 245 247 251 249 246 246 247 250 254 252 249 248 250 250 249 251 254 256 259 260
264 261 261 260 256 252 252 254 255 254 256 259 259 257 257 260 264 266 266 264 263 261 257 254 253 254 255 257 256 252 252 255 255 249 246 248 249 249 250 252 255 256 258
270 267 264 259 255 256 257 258 258 256 255 256 257 260 262 264 264 265 266 265 266 265 266 268 263 259 256 258 261 261 259 259 257 253 248 246 247 247 250 252 253 256 256
272 269 267 263 258 257 256 256 256 258 258 258 258 258 261 262 264 265 264 262 264 268 270 269 264 266 268 267 265 266 268 268 263 256 253 246 244 245 247 250 254 253 255
Height
1491 1491 1492 1492 1493 1493 1493 1493 1494 1494 1494 1495 1495 1495 1495 1496 1496 1496 1497 1497 1498 1499 1499 1500 1500 1501 1501 1501 1501 1502 1501 1501 1499 1498 1498 1498 1497 1496 1495 1494 1493 1491 1490
1489 1489 1489 1489 1490 1490 1490 1491 1491 1491 1491 1491 1491 1491 1491 1491 1492 1492 1492 1493 1493 1494 1494 1494 1495 1496 1496 1496 1496 1496 1496 1496 1495 1493 1493 1492 1492 1491 1490 1489 1488 1486 1485
1486 1486 1486 1486 1486 1487 1487 1487 1487 1487 1487 1488 1487 1487 1487 1487 1487 1487 1487 1488 1488 1488 1489 1489 1490 1490 1490 1491 1491 1491 1491 1490 1490 1489 1487 1487 1486 1486 1485 1483 1482 1481 1479
1483 1483 1483 1483 1483 1484 1484 1484 1484 1484 1483 1483 1483 1482 1482 1482 1482 1482 1482 1482 1483 1483 1483 1484 1484 1484 1484 1485 1485 1485 1485 1485 1485 1484 1482 1481 1481 1480 1479 1478 1476 1475 1474
1480 1480 1480 1480 1480 1480 1480 1480 1480 1480 1479 1479 1479 1478 1478 1478 1477 1477 1476 1477 1477 1477 1478 1478 1478 1479 1479 1480 1480 1480 1480 1479 1479 1478 1477 1476 1476 1475 1474 1473 1471 1470 1468
1477 1477 1476 1476 1476 1476 1476 1476 1476 1475 1475 1475 1474 1474 1474 1473 1473 1472 1472 1472 1472 1472 1472 1472 1473 1473 1473 1474 1474 1474 1475 1474 1474 1473 1472 1471 1470 1470 1469 1468 1466 1465 1462
1473 1473 1473 1473 1472 1472 1472 1472 1471 1471 1471 1471 1470 1470 1469 1468 1468 1467 1467 1467 1467 1467 1467 1467 1467 1468 1468 1468 1468 1468 1468 1468 1468 1468 1467 1466 1465 1464 1464 1462 1461 1460 1458
1470 1469 1469 1469 1468 1468 1468 1467 1467 1467 1467 1466 1466 1465 1465 1464 1463 1463 1462 1462 1462 1462 1463 1463 1462 1462 1463 1463 1463 1462 1462 1462 1462 1462 1461 1460 1460 1459 1458 1457 1456 1454 1452
1466 1466 1466 1465 1464 1464 1464 1463 1463 1463 1462 1462 1461 1461 1460 1459 1459 1458 1458 1458 1458 1458 1458 1458 1458 1458 1458 1457 1457 1457 1456 1456 1456 1455 1455 1454 1454 1453 1452 1451 1450 1448 1446
1463 1463 1462 1461 1461 1460 1460 1459 1459 1458 1458 1457 1456 1456 1455 1454 1454 1454 1454 1453 1453 1453 1453 1453 1453 1453 1453 1453 1453 1452 1451 1451 1451 1450 1449 1448 1448 1447 1447 1446 1445 1443 1441
1460 1459 1458 1458 1457 1456 1456 1455 1454 1454 1453 1452 1452 1451 1450 1450 1449 1449 1449 1449 1449 1448 1448 1448 1448 1449 1448 1448 1448 1448 1447 1447 1446 1445 1444 1443 1442 1442 1441 1440 1440 1439 1437
1456 1455 1454 1454 1453 1452 1451 1451 1450 1449 1449 1448 1447 1447 1446 1446 1445 1445 1445 1445 1445 1444 1444 1444 1444 1444 1444 1443 1443 1443 1442 1442 1441 1440 1439 1438 1437 1437 1436 1435 1434 1433 1432
1452 1451 1450 1450 1449 1448 1447 1447 1446 1445 1445 1444 1443 1442 1442 1442 1441 1441 1441 1440 1440 1440 1440 1440 1440 1439 1439 1439 1438 1438 1437 1437 1436 1435 1434 1433 1433 1432 1431 1429 1428 1427 1426
1449 1448 1446 1445 1444 1444 1443 1442 1442 1441 1440 1440 1439 1438 1438 1437 1437 1436 1436 1436 1436 1436 1435 1435 1435 1435 1434 1434 1433 1433 1432 1432 1431 1431 1430 1429 1428 1427 1425 1424 1423 1422 1420
1445 1444 1443 1442 1441 1440 1439 1438 1437 1437 1437 1436 1435 1435 1434 1433 1433 1433 1432 1432 1432 1432 1431 1431 1431 1430 1430 1429 1429 1429 1428 1428 1427 1426 1425 1424 1423 1422 1421 1419 1418 1417 1416
1441 1440 1439 1438 1437 1436 1435 1434 1433 1433 1432 1431 1431 1430 1429 1429 1429 1428 1428 1428 1428 1428 1428 1427 1426 1426 1426 1425 1425 1424 1424 1423 1422 1422 1421 1419 1418 1417 1416 1415 1414 1413 1411
1438 1437 1435 1434 1433 1432 1431 1430 1428 1428 1427 1426 1426 1425 1425 1424 1424 1424 1424 1424 1424 1423 1423 1422 1422 1422 1421 1421 1421 1420 1419 1419 1418 1417 1416 1415 1414 1413 1411 1410 1409 1408 1407
1434 1432 1431 1430 1429 1428 1427 1426 1425 1423 1422 1421 1421 1420 1420 1419 1419 1419 1419 1419 1418 1418 1418 1418 1418 1418 1417 1417 1416 1416 1415 1414 1413 1412 1411 1410 1409 1408 1407 1406 1405 1404 1403
1429 1428 1427 1426 1425 1424 1423 1422 1421 1419 1418 1417 1416 1416 1415 1415 1415 1414 1414 1414 1414 1414 1414 1413 1413 1413 1412 1412 1412 1411 1410 1409 1409 1408 1406 1405 1405 1404 1402 1402 1401 1399 1399
1424 1424 1423 1422 1420 1419 1418 1417 1416 1415 1414 1413 1412 1411 1411 1410 1410 1409 1409 1409 1409 1409 1409 1409 1408 1408 1408 1407 1407 1406 1405 1404 1404 1403 1402 1401 1400 1399 1398 1397 1396 1395 1394
1420 1419 1418 1417 1416 1415 1414 1413 1412 1411 1410 1409 1408 1407 1407 1406 1405 1405 1405 1405 1405 1404 1404 1404 1404 1403 1403 1403 1402 1401 1400 1399 1399 1398 1397 1396 1395 1394 1393 1393 1392 1391 1390
1415 1414 1413 1412 1411 1410 1409 1408 1408 1407 1406 1405 1404 1403 1403 1402 1401 1401 1401 1400 1400 1400 1400 1399 1399 1398 1398 1398 1397 1396 1396 1395 1394 1393 1392 1391 1390 1389 1389 1388 1387 1387 1386
1410 1409 1408 1407 1406 1405 1405 1404 1403 1402 1401 1401 1400 1399 1398 1398 1397 1397 1396 1396 1396 1395 1395 1394 1394 1393 1393 1393 1392 1392 1391 1390 1389 1388 1387 1386 1385 1385 1384 1384 1383 1382 1382
1405 1404 1403 1402 1401 1400 1400 1399 1398 1398 1397 1396 1396 1395 1395 1394 1393 1393 1392 1392 1391 1391 1390 1390 1389 1389 1388 1388 1387 1386 1386 1385 1384 1383 1382 1381 1381 1380 1380 1379 1379 1378 1377
1401 1400 1399 1397 1396 1396 1395 1394 1394 1393 1393 1392 1392 1391 1391 1390 1390 1389 1388 1388 1387 1386 1386 1385 1384 1384 1384 1383 1382 1381 1381 1380 1379 1378 1377 1377 1376 1376 1375 1375 1374 1374 1373
1396 1395 1394 1393 1392 1391 1390 1390 1390 1389 1389 1388 1388 1387 1387 1386 1386 1385 1384 1384 1383 1382 1382 1381 1380 1380 1379 1378 1378 1377 1376 1375 1374 1373 1373 1372 1372 1371 1371 1370 1370 1369 1369